Flag for Monaco Weather past 2 weeks in Monaco, Monaco

Now
59 °F

Clear.


Feels Like: 58 °F
Forecast: 56 / 69 °F
Wind: 8 mph from Northwest

Location: Nice Airport

Current Time: Oct 25, 2014 at 2:03:26 AM

Latest Report: Oct 25, 2014 at 1:00 AM


Visibility: 10 mi

Pressure: 29.98 "Hg

Humidity: 48%

Dew point: 39 °F

Location of MonacoLocation

Historic Weather in Monaco — Graph

°F

Monaco temperature yesterday

Maximum temperature yesterday: 73 °F (at 1:00 PM)
Minimum temperature yesterday: 55 °F (at 6:00 AM)
Average temperature yesterday: 64 °F

Past Weeks' High & Low Weather Summary

 TemperatureHumidityPressure
High77 °F (Oct 10, 11:30 AM)94% (Oct 13, 5:00 PM)30.27 "Hg (Oct 13, 5:00 PM)
Low54 °F (Oct 23, 6:00 AM)14% (Oct 22, 11:30 AM)29.65 "Hg (Oct 22, 12:00 AM)
Average68 °F67%29.95 "Hg
* Reported Oct 10 1:00 AM — Oct 25 1:00 AM, Monaco, Weather by CustomWeather, © 2014

Note: Actual official high and low records may vary slightly from our data, if they occured in-between our weather recording intervals... More about our weather records

Advertising

Monaco weather history for previous 24 hours

 ConditionsComfort  
Time TempWeatherWind HumidityBarometerVisibility
1:00 AM
Oct 25
59 °FClear.8 mph48%29.98 "Hg10 mi
12:30 AM59 °FClear.7 mph48%29.98 "Hg10 mi
12:00 AM59 °FClear.8 mph51%29.95 "Hg10 mi
11:30 PM
Oct 24
61 °FClear.10 mph48%29.95 "Hg10 mi
11:00 PM61 °FClear.9 mph48%29.95 "Hg10 mi
10:30 PM61 °FClear.9 mph52%29.95 "Hg10 mi
10:00 PM61 °FClear.8 mph52%29.95 "Hg10 mi
9:30 PM63 °FClear.9 mph52%29.95 "Hg10 mi
9:12 PM63 °FClear.9 mph52%29.95 "Hg10 mi
8:30 PM63 °FClear.8 mph59%29.92 "Hg10 mi
8:00 PM66 °FPassing clouds.7 mph60%29.92 "HgN/A
7:30 PM70 °FSunny.14 mph64%29.92 "Hg10 mi
7:00 PM70 °FSunny.15 mph64%29.89 "Hg10 mi
6:30 PM72 °FSunny.15 mph65%29.89 "Hg10 mi
6:00 PM72 °FSunny.15 mph61%29.89 "Hg10 mi
5:30 PM72 °FSunny.15 mph65%29.89 "Hg10 mi
5:00 PM72 °FSunny.16 mph61%29.89 "Hg10 mi
4:30 PM72 °FSunny.16 mph61%29.89 "Hg10 mi
4:00 PM73 °FSunny.14 mph47%29.89 "Hg10 mi
3:30 PM73 °FSunny.8 mph44%29.89 "Hg10 mi
3:00 PM72 °FSunny.9 mph47%29.89 "Hg10 mi
2:30 PM72 °FSunny.7 mph44%29.92 "Hg10 mi
2:00 PM72 °FSunny.7 mph38%29.92 "Hg10 mi
1:30 PM72 °FSunny.7 mph31%29.92 "Hg10 mi
1:00 PM73 °FPassing clouds.6 mph19%29.95 "HgN/A
12:30 PM72 °FSunny.8 mph25%29.95 "Hg10 mi
12:00 PM70 °FSunny.12 mph27%29.95 "Hg10 mi
11:30 AM68 °FSunny.12 mph28%29.95 "Hg10 mi
11:00 AM64 °FSunny.12 mph32%29.92 "Hg10 mi
10:30 AM63 °FSunny.16 mph34%29.92 "Hg10 mi
10:00 AM61 °FSunny.16 mph36%29.92 "Hg10 mi
9:30 AM59 °FSunny.17 mph39%29.92 "Hg10 mi
9:00 AM57 °FSunny.18 mph41%29.89 "Hg10 mi
8:30 AM55 °FClear.20 mph41%29.89 "Hg10 mi
8:00 AM55 °FClear.16 mph41%29.86 "Hg10 mi
7:30 AM55 °FClear.13 mph44%29.86 "Hg10 mi
7:00 AM55 °FClear.14 mph44%29.89 "Hg10 mi
6:30 AM57 °FPassing clouds.12 mph41%29.89 "HgN/A
6:00 AM55 °FClear.12 mph44%29.89 "Hg10 mi
5:30 AM57 °FClear.12 mph41%29.86 "Hg10 mi
4:30 AM57 °FClear.15 mph41%29.86 "Hg10 mi
4:00 AM57 °FClear.14 mph41%29.86 "Hg10 mi
3:30 AM57 °FClear.12 mph41%29.86 "Hg10 mi
3:00 AM57 °FClear.12 mph41%29.86 "Hg10 mi
2:30 AM59 °FClear.9 mph39%29.89 "Hg10 mi
2:00 AM59 °FClear.10 mph39%29.89 "Hg10 mi
Weather by CustomWeather, © 2014

See weather overviewHow to use our weather pages